This is the latest recevied weather packets stored in our database for station/object CW2401. If no packets are shown the sender has not sent any weather packets the latest 10 day(s).
| Time | Temp. | Humidity | Pressure | Rain* | Wind** | Luminosity | Snow |
|---|---|---|---|---|---|---|---|
| 1777790161 | 4.44° C | 91% | 1016.4 hPa | 0 mm | - | - | - |
| 1777789917 | 4.44° C | 91% | 1016.4 hPa | 0 mm | - | - | - |
| 1777789310 | 5° C | 91% | 1016.4 hPa | 0 mm | - | - | - |
| 1777788096 | 5° C | 91% | 1016.3 hPa | 0 mm | - | - | - |
| 1777787611 | 5° C | 91% | 1016.3 hPa | 0 mm | - | - | - |
| 1777787366 | 5° C | 91% | 1016.3 hPa | 0 mm | - | - | - |
| 1777787243 | 5° C | 91% | 1016.4 hPa | 0 mm | - | - | - |
| 1777786515 | 5.56° C | 90% | 1016.4 hPa | 0 mm | - | - | - |
| 1777785914 | 5.56° C | 90% | 1016.5 hPa | 0 mm | - | - | - |
| 1777785794 | 5.56° C | 90% | 1016.5 hPa | 0 mm | - | - | - |
| 1777783859 | 6.11° C | 90% | 1016.3 hPa | 0 mm | - | - | - |
| 1777781673 | 6.67° C | 90% | 1016.1 hPa | 0 mm | - | - | - |
| 1777781429 | 6.67° C | 90% | 1016.1 hPa | 0 mm | - | - | - |
| 1777780222 | 7.22° C | 90% | 1015.9 hPa | 0 mm | - | - | - |
| 1777778766 | 7.78° C | 90% | 1015.8 hPa | 0 mm | - | - | - |
| 1777778644 | 7.78° C | 90% | 1015.7 hPa | 0 mm | - | - | - |
| 1777777923 | 7.78° C | 90% | 1015.7 hPa | 0 mm | - | - | - |
| 1777777804 | 7.78° C | 90% | 1015.6 hPa | 0 mm | - | - | - |
| 1777776589 | 8.33° C | 90% | 1015.4 hPa | 0 mm | - | - | - |
| 1777775377 | 8.33° C | 90% | 1015.2 hPa | 0 mm | - | - | - |
| 1777772604 | 9.44° C | 88% | 1014.9 hPa | 0 mm | - | - | - |
| 1777772484 | 9.44° C | 88% | 1014.9 hPa | 0 mm | - | - | - |
| 1777771875 | 10° C | 88% | 1014.6 hPa | 0 mm | - | - | - |
| 1777771634 | 10° C | 88% | 1014.3 hPa | 0 mm | - | - | - |
| 1777770542 | 10.56° C | 87% | 1014.4 hPa | 0 mm | - | - | - |
* Rain latest hour (hover to see other rain measurements)
** Current wind speed in m/s (hover to see current wind gust speed)